Simultaneous Nadir Overpasses (SNOs) Predictions

Prediction of SNOs between NOAA-19 and NPP Satellite Orbit:

Table of predicted SNOs for the next 14.0 days since TLE Epoch: 10/28/2016
Index Date (NOAA-19) Time (NOAA-19) Lat,Lon (NOAA-19) SZA (NOAA-19 ) Date (NPP) Time (NPP) Lat,Lon (NPP) SZA (NPP ) Distance(km) Time Diff (sec)
1 11/01/2016 15:16:28 80.95,-101.07 98.50 11/01/2016 15:17:35 80.94,-100.97 98.45 2.05 67
2 11/01/2016 16:07:24 -80.95, 66.11 81.48 11/01/2016 16:08:21 -80.96, 65.95 81.48 3.18 57
3 11/01/2016 16:58:30 80.95,-126.63 98.53 11/01/2016 16:59:06 80.96,-126.74 98.53 2.33 36
4 11/01/2016 17:49:25 -80.95, 40.93 81.49 11/01/2016 17:49:50 -80.95, 40.90 81.51 1.17 25
5 11/01/2016 18:40:31 80.96,-151.80 98.52 11/01/2016 18:40:35 80.95,-151.79 98.51 1.09 4
6 11/01/2016 19:31:27 -80.95, 15.38 81.47 11/01/2016 19:31:20 -80.95, 15.49 81.48 2.09 7
7 11/01/2016 20:22:33 80.95,-177.36 98.55 11/01/2016 20:22:05 80.95,-177.20 98.54 2.93 28
8 11/01/2016 21:13:29 -80.95, -10.17 81.44 11/01/2016 21:12:51 -80.97, -10.28 81.40 2.26 38
9 11/01/2016 22:04:34 80.96, 157.47 98.53 11/01/2016 22:03:35 80.95, 157.40 98.56 1.65 59




NCC Satellite Simultaneous Nadir Overpasses (SNOs) Prediction Service
